Location: Hains Lake
(37.8540°N, 99.8578°W)
Time: 16:21:33
(UTC+00:00)

Transit 2A - All Passes

Search period start: 19 April 2021 00:00
Search period end: 29 April 2021 00:00
Orbit: 602 x 957 km, 66.7° (Epoch: 18 April)

Date Brightness Start Highest point End Pass type
(mag) Time Alt. Az. Time Alt. Az. Time Alt. Az.
19 Apr - 00:27:21 10° WNW 00:30:08 16° WSW 00:33:03 10° SW daylight
19 Apr - 13:21:11 10° SSW 13:26:03 62° ESE 13:30:32 10° NE daylight
19 Apr - 15:06:49 10° W 15:09:29 15° NW 15:12:05 10° NNW daylight
19 Apr - 22:09:09 10° N 22:13:07 31° NE 22:17:19 10° ESE daylight
19 Apr - 23:52:23 10° NW 23:56:06 25° WSW 00:00:02 10° SSW daylight
20 Apr - 12:47:21 10° S 12:51:55 39° ESE 12:56:10 10° NE daylight
20 Apr - 14:31:28 10° WSW 14:35:07 22° NW 14:38:37 10° N daylight
20 Apr - 21:35:24 10° N 21:38:49 21° NE 21:42:22 10° ESE daylight
20 Apr - 23:17:48 10° NW 23:22:02 39° WSW 23:26:33 10° S daylight
21 Apr - 12:13:52 10° SSE 12:17:51 25° ESE 12:21:35 10° NE daylight
21 Apr - 13:56:32 10° WSW 14:00:49 32° NW 14:04:52 10° N daylight
21 Apr - 21:01:58 10° NNE 21:04:27 14° NE 21:06:59 10° E daylight
21 Apr - 22:43:26 10° NW 22:47:54 63° WSW 22:52:42 10° SSE daylight
22 Apr - 11:40:53 10° SE 11:43:48 16° ESE 11:46:36 10° ENE daylight
22 Apr - 13:21:54 10° SW 13:26:35 48° WNW 13:30:56 10° NNE daylight
22 Apr - 22:09:14 10° NNW 22:13:45 82° ENE 22:18:37 10° SSE daylight
23 Apr - 12:47:31 10° SSW 12:52:23 77° WNW 12:56:53 10° NNE daylight
23 Apr - 21:35:10 10° NNW 21:39:33 52° ENE 21:44:16 10° SE daylight
23 Apr - 23:19:44 10° WNW 23:22:19 15° WSW 23:25:00 10° SW daylight
24 Apr - 12:13:23 10° SSW 12:18:13 68° ESE 12:22:42 10° NNE daylight
24 Apr - 13:59:23 10° W 14:01:43 14° NW 14:04:00 10° NNW daylight
24 Apr - 21:01:14 10° N 21:05:19 34° ENE 21:09:41 10° ESE daylight
24 Apr - 22:44:38 10° WNW 22:48:16 23° WSW 22:52:08 10° SSW daylight
25 Apr - 11:39:31 10° S 11:44:06 42° ESE 11:48:22 10° NE daylight
25 Apr - 13:23:54 10° W 13:27:20 20° NW 13:30:39 10° N daylight
25 Apr - 20:27:26 10° N 20:31:02 23° NE 20:34:48 10° ESE daylight
25 Apr - 22:10:01 10° NW 22:14:12 36° WSW 22:18:41 10° S daylight
26 Apr - 11:05:58 10° SSE 11:10:01 27° ESE 11:13:50 10° NE visible
26 Apr - 12:48:54 10° WSW 12:53:02 29° NW 12:56:57 10° N daylight
26 Apr - 19:53:55 10° NNE 19:56:41 16° NE 19:59:31 10° E daylight
26 Apr - 21:35:37 10° NW 21:40:05 58° WSW 21:44:55 10° SSE daylight
27 Apr - 10:32:52 10° SSE 10:35:58 17° ESE 10:38:56 10° ENE visible
27 Apr - 12:14:13 10° SW 12:18:46 44° WNW 12:23:04 10° NNE daylight
27 Apr - 19:21:13 10° NNE 19:22:15 11° NE 19:23:17 10° ENE daylight
27 Apr - 21:01:23 10° NNW 21:05:56 89° NE 21:10:52 10° SSE daylight
28 Apr - 10:01:09 10° ESE 10:01:57 10° ESE 10:02:44 10° E visible
28 Apr - 11:39:47 10° SW 11:44:34 70° WNW 11:49:02 10° NNE daylight
28 Apr - 20:27:17 10° NNW 20:31:45 57° ENE 20:36:34 10° SE daylight
28 Apr - 22:12:08 10° WNW 22:14:28 14° WSW 22:16:55 10° SW daylight
